| time (UTC) | temp F | wind direction | speed MPH | gust MPH | rain 1hr in | rain 24hr in | rain mn in | humidity % | barometer mb |
| 20260505235004 | 36 | 111 | 0.0 | 4.0 | 0.00 | 0.00 | 0.00 | 61 | 1010.0 |
| 20260505234505 | 36 | 111 | 0.0 | 4.0 | 0.00 | 0.00 | 0.00 | 60 | 1010.0 |
| 20260505234005 | 36 | 0 | 0.0 | 0.0 | 0.00 | 0.00 | 0.00 | 60 | 1010.0 |
| 20260505233005 | 36 | 0 | 0.0 | 0.0 | 0.00 | 0.00 | 0.00 | 61 | 1010.0 |
| 20260505232004 | 37 | 0 | 0.0 | 0.0 | 0.00 | 0.00 | 0.00 | 61 | 1010.0 |
| 20260505231505 | 37 | 0 | 0.0 | 0.0 | 0.00 | 0.00 | 0.00 | 60 | 1010.0 |
| 20260505230504 | 37 | 0 | 0.0 | 0.0 | 0.00 | 0.00 | 0.00 | 59 | 1010.0 |
| 20260505230006 | 37 | 0 | 0.0 | 0.0 | 0.00 | 0.00 | 0.00 | 58 | 1010.0 |
| 20260505225504 | 37 | 0 | 0.0 | 0.0 | 0.00 | 0.00 | 0.00 | 58 | 1011.0 |
| 20260505224505 | 38 | 0 | 0.0 | 0.0 | 0.00 | 0.00 | 0.00 | 57 | 1011.0 |
| 20260505224004 | 38 | 0 | 0.0 | 0.0 | 0.00 | 0.00 | 0.00 | 57 | 1010.0 |
| 20260505223504 | 38 | 0 | 0.0 | 0.0 | 0.00 | 0.00 | 0.00 | 57 | 1010.0 |
| 20260505223005 | 38 | 0 | 0.0 | 0.0 | 0.00 | 0.00 | 0.00 | 57 | 1010.0 |
| 20260505222505 | 38 | 0 | 0.0 | 0.0 | 0.00 | 0.00 | 0.00 | 57 | 1010.0 |
| 20260505222005 | 38 | 158 | 0.0 | 3.0 | 0.00 | 0.00 | 0.00 | 56 | 1010.0 |
| 20260505220005 | 39 | 0 | 0.0 | 0.0 | 0.00 | 0.00 | 0.00 | 55 | 1010.0 |
| 20260505215505 | 39 | 0 | 0.0 | 0.0 | 0.00 | 0.00 | 0.00 | 54 | 1011.0 |
| 20260505215005 | 39 | 0 | 0.0 | 0.0 | 0.00 | 0.00 | 0.00 | 54 | 1011.0 |
| 20260505214504 | 40 | 152 | 0.0 | 3.0 | 0.00 | 0.00 | 0.00 | 53 | 1011.0 |
| 20260505214005 | 40 | 152 | 0.0 | 3.0 | 0.00 | 0.00 | 0.00 | 52 | 1010.0 |
| 20260505213504 | 40 | 337 | 0.0 | 1.0 | 0.00 | 0.00 | 0.00 | 51 | 1010.0 |
| 20260505212504 | 41 | 337 | 0.0 | 1.0 | 0.00 | 0.00 | 0.00 | 49 | 1010.0 |
| 20260505212004 | 41 | 280 | 0.0 | 3.0 | 0.00 | 0.00 | 0.00 | 49 | 1010.0 |
| 20260505211504 | 41 | 280 | 0.0 | 3.0 | 0.00 | 0.00 | 0.00 | 49 | 1010.0 |
| 20260505211005 | 42 | 337 | 0.0 | 2.0 | 0.00 | 0.00 | 0.00 | 49 | 1010.0 |
| 20260505210505 | 42 | 283 | 0.0 | 3.0 | 0.00 | 0.00 | 0.00 | 49 | 1010.0 |
| 20260505210004 | 42 | 271 | 0.0 | 3.0 | 0.00 | 0.00 | 0.00 | 48 | 1010.0 |
| 20260505205505 | 42 | 0 | 0.0 | 0.0 | 0.00 | 0.00 | 0.00 | 49 | 1010.0 |
| 20260505205005 | 42 | 0 | 0.0 | 0.0 | 0.00 | 0.00 | 0.00 | 49 | 1010.0 |
| 20260505204505 | 42 | 331 | 0.0 | 5.0 | 0.00 | 0.00 | 0.00 | 49 | 1010.0 |
| 20260505204004 | 42 | 325 | 0.0 | 5.0 | 0.00 | 0.00 | 0.00 | 49 | 1010.0 |
| 20260505203505 | 42 | 284 | 0.0 | 2.0 | 0.00 | 0.00 | 0.00 | 49 | 1010.0 |
| 20260505203005 | 42 | 280 | 0.0 | 2.0 | 0.00 | 0.00 | 0.00 | 49 | 1010.0 |
| 20260505202005 | 43 | 305 | 0.0 | 2.0 | 0.00 | 0.00 | 0.00 | 49 | 1010.0 |
| 20260505201505 | 43 | 232 | 0.0 | 2.0 | 0.00 | 0.00 | 0.00 | 49 | 1010.0 |
| 20260505201004 | 43 | 225 | 0.0 | 2.0 | 0.00 | 0.00 | 0.00 | 48 | 1010.0 |
| 20260505200505 | 43 | 0 | 0.0 | 0.0 | 0.00 | 0.00 | 0.00 | 48 | 1010.0 |
| 20260505200004 | 44 | 0 | 0.0 | 0.0 | 0.00 | 0.00 | 0.00 | 48 | 1010.0 |
| 20260505195006 | 44 | 248 | 0.0 | 1.0 | 0.00 | 0.00 | 0.00 | 47 | 1010.0 |
| 20260505194504 | 44 | 0 | 0.0 | 0.0 | 0.00 | 0.00 | 0.00 | 47 | 1010.0 |
| 20260505194005 | 44 | 0 | 0.0 | 0.0 | 0.00 | 0.00 | 0.00 | 46 | 1010.0 |
| 20260505193504 | 45 | 0 | 0.0 | 0.0 | 0.00 | 0.00 | 0.00 | 46 | 1010.0 |
| 20260505193006 | 45 | 0 | 0.0 | 0.0 | 0.00 | 0.00 | 0.00 | 46 | 1010.0 |
| 20260505192505 | 45 | 0 | 0.0 | 0.0 | 0.00 | 0.00 | 0.00 | 46 | 1010.0 |
| 20260505192004 | 46 | 0 | 0.0 | 0.0 | 0.00 | 0.00 | 0.00 | 45 | 1010.0 |
| 20260505191005 | 46 | 292 | 0.0 | 5.0 | 0.00 | 0.00 | 0.00 | 44 | 1009.0 |
| 20260505190504 | 47 | 294 | 1.0 | 5.0 | 0.00 | 0.00 | 0.00 | 44 | 1009.0 |
| 20260505190007 | 47 | 304 | 4.0 | 6.0 | 0.00 | 0.00 | 0.00 | 43 | 1009.0 |
| 20260505185505 | 47 | 311 | 2.0 | 6.0 | 0.00 | 0.00 | 0.00 | 43 | 1010.0 |
| 20260505185004 | 47 | 225 | 0.0 | 2.0 | 0.00 | 0.00 | 0.00 | 43 | 1010.0 |
| 20260505184504 | 48 | 255 | 0.0 | 2.0 | 0.00 | 0.00 | 0.00 | 43 | 1010.0 |
| 20260505184006 | 48 | 315 | 0.0 | 2.0 | 0.00 | 0.00 | 0.00 | 43 | 1010.0 |
| 20260505183505 | 48 | 305 | 0.0 | 2.0 | 0.00 | 0.00 | 0.00 | 43 | 1010.0 |
| 20260505183005 | 48 | 314 | 0.0 | 1.0 | 0.00 | 0.00 | 0.00 | 43 | 1010.0 |
| 20260505182505 | 48 | 0 | 0.0 | 0.0 | 0.00 | 0.00 | 0.00 | 43 | 1010.0 |
| 20260505182005 | 48 | 0 | 0.0 | 0.0 | 0.00 | 0.00 | 0.00 | 43 | 1010.0 |
| 20260505181504 | 48 | 291 | 0.0 | 3.0 | 0.00 | 0.00 | 0.00 | 42 | 1010.0 |
| 20260505181005 | 49 | 277 | 0.0 | 3.0 | 0.00 | 0.00 | 0.00 | 41 | 1009.0 |
| 20260505180006 | 49 | 271 | 1.0 | 5.0 | 0.00 | 0.00 | 0.00 | 40 | 1009.0 |
| 20260505175504 | 50 | 300 | 2.0 | 10.0 | 0.00 | 0.00 | 0.00 | 40 | 1010.0 |
| 20260505175005 | 50 | 309 | 3.0 | 10.0 | 0.00 | 0.00 | 0.00 | 39 | 1010.0 |
| 20260505174504 | 50 | 307 | 3.0 | 9.0 | 0.00 | 0.00 | 0.00 | 39 | 1010.0 |
| 20260505174004 | 51 | 287 | 2.0 | 7.0 | 0.00 | 0.00 | 0.00 | 39 | 1009.0 |
| 20260505173505 | 51 | 281 | 1.0 | 7.0 | 0.00 | 0.00 | 0.00 | 39 | 1009.0 |
| 20260505173005 | 51 | 272 | 2.0 | 5.0 | 0.00 | 0.00 | 0.00 | 38 | 1009.0 |
| 20260505172504 | 51 | 272 | 3.0 | 5.0 | 0.00 | 0.00 | 0.00 | 38 | 1009.0 |
| 20260505172004 | 52 | 294 | 3.0 | 5.0 | 0.00 | 0.00 | 0.00 | 38 | 1009.0 |
| 20260505171505 | 52 | 307 | 3.0 | 10.0 | 0.00 | 0.00 | 0.00 | 37 | 1009.0 |
| 20260505171006 | 52 | 305 | 5.0 | 10.0 | 0.00 | 0.00 | 0.00 | 37 | 1010.0 |
| 20260505170504 | 52 | 310 | 6.0 | 13.0 | 0.00 | 0.00 | 0.00 | 36 | 1010.0 |
| 20260505170005 | 53 | 306 | 6.0 | 13.0 | 0.00 | 0.00 | 0.00 | 36 | 1010.0 |
| 20260505165504 | 53 | 288 | 5.0 | 10.0 | 0.00 | 0.00 | 0.00 | 37 | 1011.0 |
| 20260505164504 | 53 | 313 | 9.0 | 15.0 | 0.00 | 0.00 | 0.00 | 36 | 1011.0 |
| 20260505164005 | 53 | 311 | 10.0 | 15.0 | 0.00 | 0.00 | 0.00 | 34 | 1010.0 |
| 20260505163005 | 53 | 317 | 8.0 | 12.0 | 0.00 | 0.00 | 0.00 | 34 | 1010.0 |
| 20260505162504 | 53 | 312 | 7.0 | 12.0 | 0.00 | 0.00 | 0.00 | 34 | 1010.0 |
| 20260505162005 | 53 | 308 | 8.0 | 14.0 | 0.00 | 0.00 | 0.00 | 36 | 1010.0 |
| 20260505161005 | 53 | 317 | 10.0 | 15.0 | 0.00 | 0.00 | 0.00 | 32 | 1010.0 |
| 20260505160505 | 53 | 314 | 11.0 | 15.0 | 0.00 | 0.00 | 0.00 | 34 | 1010.0 |
| 20260505153005 | 53 | 309 | 8.0 | 15.0 | 0.00 | 0.00 | 0.00 | 36 | 1010.0 |
| 20260505152504 | 53 | 306 | 7.0 | 12.0 | 0.00 | 0.00 | 0.00 | 37 | 1010.0 |
| 20260505151004 | 53 | 313 | 12.0 | 18.0 | 0.00 | 0.00 | 0.00 | 35 | 1009.0 |
| 20260505150505 | 53 | 307 | 10.0 | 18.0 | 0.00 | 0.00 | 0.00 | 36 | 1009.0 |
| 20260505140505 | 53 | 313 | 9.0 | 18.0 | 0.00 | 0.00 | 0.00 | 42 | 1010.0 |
| 20260505125005 | 54 | 310 | 9.0 | 18.0 | 0.00 | 0.00 | 0.00 | 41 | 1010.0 |
| 20260505124504 | 54 | 296 | 7.0 | 15.0 | 0.00 | 0.00 | 0.00 | 42 | 1010.0 |
| 20260505124004 | 54 | 296 | 8.0 | 14.0 | 0.00 | 0.00 | 0.00 | 43 | 1010.0 |
| 20260505123504 | 54 | 311 | 8.0 | 14.0 | 0.00 | 0.00 | 0.00 | 44 | 1010.0 |
| 20260505122506 | 53 | 313 | 11.0 | 19.0 | 0.00 | 0.00 | 0.00 | 45 | 1009.0 |
| 20260505122005 | 53 | 305 | 10.0 | 19.0 | 0.00 | 0.00 | 0.00 | 44 | 1009.0 |
| 20260505120006 | 54 | 303 | 8.0 | 16.0 | 0.00 | 0.00 | 0.00 | 45 | 1010.0 |
| 20260505115505 | 54 | 308 | 9.0 | 17.0 | 0.00 | 0.00 | 0.00 | 45 | 1009.0 |
| 20260505114504 | 54 | 307 | 9.0 | 18.0 | 0.00 | 0.00 | 0.00 | 44 | 1009.0 |
| 20260505114005 | 54 | 290 | 8.0 | 15.0 | 0.00 | 0.00 | 0.00 | 45 | 1009.0 |
| 20260505113504 | 54 | 277 | 7.0 | 15.0 | 0.00 | 0.00 | 0.00 | 46 | 1009.0 |
| 20260505113005 | 54 | 292 | 6.0 | 11.0 | 0.00 | 0.00 | 0.00 | 45 | 1009.0 |
| 20260505112505 | 55 | 282 | 6.0 | 11.0 | 0.00 | 0.00 | 0.00 | 50 | 1009.0 |
| 20260505111505 | 54 | 268 | 5.0 | 11.0 | 0.00 | 0.00 | 0.00 | 48 | 1009.0 |
| 20260505102006 | 53 | 307 | 8.0 | 14.0 | 0.00 | 0.00 | 0.00 | 46 | 1009.0 |
| 20260505101505 | 54 | 311 | 9.0 | 15.0 | 0.00 | 0.00 | 0.00 | 47 | 1009.0 |
| 20260505101005 | 53 | 311 | 8.0 | 15.0 | 0.00 | 0.00 | 0.00 | 48 | 1009.0 |
| 20260505100005 | 53 | 279 | 7.0 | 18.0 | 0.00 | 0.00 | 0.00 | 46 | 1009.0 |
| 20260505095505 | 54 | 301 | 7.0 | 18.0 | 0.00 | 0.00 | 0.00 | 46 | 1009.0 |
| 20260505095004 | 54 | 305 | 7.0 | 15.0 | 0.00 | 0.00 | 0.00 | 45 | 1009.0 |
| 20260505094505 | 54 | 301 | 8.0 | 16.0 | 0.00 | 0.00 | 0.00 | 47 | 1009.0 |
| 20260505093005 | 54 | 260 | 5.0 | 11.0 | 0.00 | 0.00 | 0.00 | 47 | 1010.0 |
| 20260505092505 | 54 | 276 | 5.0 | 11.0 | 0.00 | 0.00 | 0.00 | 48 | 1010.0 |
| 20260505092005 | 54 | 300 | 7.0 | 14.0 | 0.00 | 0.00 | 0.00 | 50 | 1010.0 |
| 20260505091505 | 53 | 303 | 6.0 | 14.0 | 0.00 | 0.00 | 0.00 | 49 | 1010.0 |
| 20260505091004 | 54 | 299 | 7.0 | 14.0 | 0.00 | 0.00 | 0.00 | 49 | 1010.0 |
| 20260505090505 | 53 | 297 | 7.0 | 14.0 | 0.00 | 0.00 | 0.00 | 50 | 1010.0 |
| 20260505090005 | 54 | 295 | 6.0 | 11.0 | 0.00 | 0.00 | 0.00 | 50 | 1010.0 |
| 20260505085505 | 54 | 280 | 6.0 | 10.0 | 0.00 | 0.00 | 0.00 | 53 | 1010.0 |
| 20260505084505 | 53 | 274 | 5.0 | 10.0 | 0.00 | 0.00 | 0.00 | 53 | 1010.0 |
| 20260505084006 | 53 | 289 | 5.0 | 10.0 | 0.00 | 0.00 | 0.00 | 56 | 1010.0 |
| 20260505083505 | 53 | 309 | 6.0 | 11.0 | 0.00 | 0.00 | 0.00 | 56 | 1010.0 |
| 20260505083005 | 53 | 308 | 6.0 | 11.0 | 0.00 | 0.00 | 0.00 | 54 | 1010.0 |
| 20260505082504 | 53 | 299 | 6.0 | 10.0 | 0.00 | 0.00 | 0.00 | 56 | 1010.0 |
| 20260505082005 | 53 | 300 | 6.0 | 10.0 | 0.00 | 0.00 | 0.00 | 57 | 1010.0 |
| 20260505081004 | 52 | 309 | 11.0 | 24.0 | 0.00 | 0.00 | 0.00 | 59 | 1010.0 |
| 20260505080007 | 52 | 295 | 7.0 | 16.0 | 0.00 | 0.00 | 0.00 | 59 | 1010.0 |
| 20260505075504 | 52 | 304 | 7.0 | 16.0 | 0.00 | 0.00 | 0.00 | 58 | 1009.0 |
| 20260505075006 | 52 | 309 | 7.0 | 14.0 | 0.00 | 0.00 | 0.00 | 58 | 1009.0 |
| 20260505074505 | 52 | 307 | 6.0 | 14.0 | 0.00 | 0.00 | 0.00 | 59 | 1009.0 |
| 20260505074005 | 52 | 303 | 5.0 | 12.0 | 0.00 | 0.00 | 0.00 | 63 | 1009.0 |
| 20260505073505 | 52 | 310 | 7.0 | 13.0 | 0.00 | 0.00 | 0.00 | 62 | 1009.0 |
| 20260505073007 | 52 | 293 | 6.0 | 13.0 | 0.00 | 0.00 | 0.00 | 62 | 1009.0 |
| 20260505072505 | 52 | 272 | 6.0 | 10.0 | 0.00 | 0.00 | 0.00 | 64 | 1009.0 |
| 20260505072005 | 51 | 291 | 6.0 | 10.0 | 0.00 | 0.00 | 0.00 | 64 | 1009.0 |
| 20260505071504 | 51 | 304 | 7.0 | 15.0 | 0.00 | 0.00 | 0.00 | 64 | 1009.0 |
| 20260505071005 | 51 | 311 | 9.0 | 15.0 | 0.00 | 0.00 | 0.00 | 63 | 1009.0 |
| 20260505070505 | 51 | 314 | 7.0 | 15.0 | 0.00 | 0.00 | 0.00 | 62 | 1009.0 |
| 20260505070005 | 51 | 307 | 4.0 | 8.0 | 0.00 | 0.00 | 0.00 | 65 | 1009.0 |
| 20260505065005 | 50 | 306 | 5.0 | 14.0 | 0.00 | 0.00 | 0.00 | 69 | 1009.0 |
| 20260505064504 | 50 | 295 | 6.0 | 11.0 | 0.00 | 0.00 | 0.00 | 66 | 1009.0 |
| 20260505064005 | 50 | 281 | 6.0 | 11.0 | 0.00 | 0.00 | 0.00 | 66 | 1009.0 |
| 20260505063004 | 50 | 274 | 4.0 | 11.0 | 0.00 | 0.00 | 0.00 | 68 | 1009.0 |
| 20260505062504 | 49 | 254 | 4.0 | 11.0 | 0.00 | 0.00 | 0.00 | 70 | 1009.0 |
| 20260505062004 | 49 | 268 | 6.0 | 13.0 | 0.00 | 0.00 | 0.00 | 72 | 1009.0 |
| 20260505061504 | 50 | 284 | 6.0 | 13.0 | 0.00 | 0.00 | 0.00 | 71 | 1009.0 |
| 20260505061004 | 50 | 294 | 5.0 | 11.0 | 0.00 | 0.00 | 0.00 | 72 | 1009.0 |
| 20260505060504 | 49 | 275 | 4.0 | 11.0 | 0.00 | 0.00 | 0.00 | 74 | 1009.0 |
| 20260505055005 | 48 | 307 | 7.0 | 13.0 | 0.00 | 0.00 | 0.00 | 78 | 1009.0 |
| 20260505053504 | 48 | 306 | 7.0 | 11.0 | 0.00 | 0.00 | 0.00 | 80 | 1008.0 |
| 20260505052504 | 48 | 305 | 4.0 | 11.0 | 0.00 | 0.00 | 0.00 | 82 | 1009.0 |
| 20260505052005 | 47 | 288 | 3.0 | 9.0 | 0.00 | 0.00 | 0.00 | 85 | 1009.0 |
| 20260505051505 | 47 | 268 | 3.0 | 9.0 | 0.00 | 0.00 | 0.00 | 85 | 1009.0 |
| 20260505051004 | 47 | 266 | 4.0 | 9.0 | 0.00 | 0.00 | 0.00 | 86 | 1008.0 |
| 20260505050504 | 47 | 276 | 3.0 | 7.0 | 0.00 | 0.00 | 0.00 | 86 | 1008.0 |
| 20260505041505 | 46 | 267 | 6.0 | 14.0 | 0.00 | 0.00 | 0.00 | 85 | 1008.0 |
| 20260505041005 | 46 | 258 | 6.0 | 9.0 | 0.00 | 0.00 | 0.00 | 85 | 1008.0 |
| 20260505040504 | 46 | 258 | 6.0 | 9.0 | 0.00 | 0.00 | 0.00 | 86 | 1008.0 |
| 20260505035005 | 46 | 262 | 3.0 | 9.0 | 0.00 | 0.00 | 0.00 | 86 | 1008.0 |
| 20260505034505 | 46 | 259 | 5.0 | 10.0 | 0.00 | 0.00 | 0.00 | 86 | 1008.0 |
| 20260505034004 | 46 | 256 | 5.0 | 11.0 | 0.00 | 0.00 | 0.00 | 86 | 1006.9 |
| 20260505033006 | 46 | 272 | 5.0 | 12.0 | 0.00 | 0.06 | 0.00 | 85 | 1006.9 |
| 20260505032505 | 46 | 260 | 7.0 | 16.0 | 0.00 | 0.06 | 0.00 | 85 | 1008.0 |
| 20260505032004 | 46 | 257 | 7.0 | 17.0 | 0.00 | 0.06 | 0.00 | 85 | 1008.0 |
| 20260505031505 | 46 | 260 | 7.0 | 17.0 | 0.00 | 0.06 | 0.00 | 86 | 1008.0 |
| 20260505031006 | 46 | 259 | 7.0 | 15.0 | 0.00 | 0.06 | 0.00 | 86 | 1008.0 |
| 20260505030005 | 46 | 271 | 7.0 | 11.0 | 0.00 | 0.06 | 0.00 | 86 | 1008.0 |
| 20260505025006 | 46 | 267 | 6.0 | 12.0 | 0.00 | 0.06 | 0.00 | 87 | 1008.0 |
| 20260505024504 | 46 | 266 | 6.0 | 13.0 | 0.00 | 0.06 | 0.00 | 87 | 1008.0 |
| 20260505024005 | 46 | 270 | 5.0 | 13.0 | 0.00 | 0.06 | 0.00 | 87 | 1008.0 |
| 20260505023506 | 46 | 277 | 4.0 | 12.0 | 0.00 | 0.06 | 0.00 | 87 | 1008.0 |
| 20260505022504 | 46 | 267 | 6.0 | 14.0 | 0.00 | 0.06 | 0.00 | 87 | 1008.0 |
| 20260505022007 | 46 | 263 | 6.0 | 14.0 | 0.00 | 0.06 | 0.00 | 87 | 1008.0 |
| 20260505021504 | 46 | 260 | 4.0 | 10.0 | 0.00 | 0.06 | 0.00 | 87 | 1008.0 |
| 20260505020505 | 46 | 264 | 5.0 | 9.0 | 0.00 | 0.06 | 0.00 | 87 | 1009.0 |
| 20260505020005 | 46 | 270 | 4.0 | 8.0 | 0.00 | 0.06 | 0.00 | 86 | 1009.0 |
| 20260505015504 | 46 | 265 | 4.0 | 11.0 | 0.00 | 0.06 | 0.00 | 86 | 1009.0 |
| 20260505015006 | 46 | 263 | 4.0 | 16.0 | 0.00 | 0.06 | 0.00 | 87 | 1009.0 |
| 20260505014005 | 46 | 270 | 6.0 | 12.0 | 0.00 | 0.06 | 0.00 | 87 | 1009.0 |
| 20260505013504 | 46 | 262 | 5.0 | 14.0 | 0.00 | 0.06 | 0.00 | 87 | 1009.0 |
| 20260505013005 | 46 | 270 | 5.0 | 14.0 | 0.00 | 0.06 | 0.00 | 87 | 1009.0 |
| 20260505012504 | 46 | 276 | 5.0 | 13.0 | 0.00 | 0.06 | 0.00 | 87 | 1010.0 |
| 20260505012006 | 46 | 261 | 3.0 | 13.0 | 0.00 | 0.11 | 0.00 | 87 | 1010.0 |
| 20260505011005 | 46 | 260 | 5.0 | 12.0 | 0.00 | 0.11 | 0.00 | 87 | 1009.0 |
| 20260505010504 | 46 | 260 | 6.0 | 12.0 | 0.00 | 0.11 | 0.00 | 87 | 1009.0 |
| 20260505010005 | 46 | 268 | 6.0 | 12.0 | 0.00 | 0.11 | 0.00 | 87 | 1009.0 |
| 20260505005504 | 46 | 266 | 5.0 | 11.0 | 0.00 | 0.11 | 0.00 | 87 | 1009.0 |
| 20260505005006 | 46 | 266 | 4.0 | 11.0 | 0.00 | 0.11 | 0.00 | 87 | 1009.0 |
| 20260505004505 | 46 | 273 | 3.0 | 8.0 | 0.00 | 0.11 | 0.00 | 86 | 1009.0 |
| 20260505004005 | 46 | 268 | 3.0 | 9.0 | 0.00 | 0.11 | 0.00 | 86 | 1010.0 |
| 20260505003504 | 46 | 260 | 5.0 | 13.0 | 0.00 | 0.11 | 0.00 | 86 | 1010.0 |
| 20260505003005 | 46 | 263 | 5.0 | 13.0 | 0.00 | 0.11 | 0.00 | 87 | 1010.0 |
| 20260505002504 | 46 | 263 | 5.0 | 8.0 | 0.00 | 0.11 | 0.00 | 87 | 1009.0 |
| 20260505002005 | 46 | 254 | 6.0 | 14.0 | 0.00 | 0.11 | 0.00 | 87 | 1009.0 |
| 20260505001504 | 46 | 259 | 6.0 | 14.0 | 0.00 | 0.11 | 0.00 | 87 | 1009.0 |
| 20260505001005 | 46 | 268 | 6.0 | 10.0 | 0.00 | 0.11 | 0.00 | 87 | 1010.0 |
| 20260505000505 | 46 | 271 | 6.0 | 11.0 | 0.00 | 0.11 | 0.00 | 87 | 1010.0 |
| 20260505000005 | 45 | 270 | 7.0 | 11.0 | 0.00 | 0.11 | 0.00 | 87 | 1010.0 |